TimeCST,TemperatureF,Dew PointF,Humidity,Sea Level PressureIn,VisibilityMPH,Wind Direction,Wind SpeedMPH,Gust SpeedMPH,PrecipitationIn,Events,Conditions,WindDirDegrees,DateUTC
12:00 AM,19.9,18.0,92,29.93,0.8,North,3.5,-,0.01,Snow,Light Snow,360,2014-02-01 06:00:00
12:09 AM,19.9,18.0,92,29.93,0.5,Variable,3.5,-,0.03,Fog-Snow,Snow,0,2014-02-01 06:09:00
12:11 AM,19.9,18.0,92,29.93,0.2,North,3.5,-,0.04,Fog-Snow,Heavy Snow,360,2014-02-01 06:11:00
12:49 AM,19.4,17.6,93,29.87,0.5,NE,10.4,-,0.10,Fog-Snow,Snow,40,2014-02-01 06:49:00
12:52 AM,19.9,18.0,92,29.91,0.5,NE,10.4,-,0.10,Fog-Snow,Snow,40,2014-02-01 06:52:00
1:05 AM,19.9,18.0,92,29.93,1.2,WNW,4.6,-,0.01,Snow,Light Snow,300,2014-02-01 07:05:00
1:13 AM,19.9,18.0,92,29.94,1.2,NNW,3.5,-,0.01,Snow,Light Snow,330,2014-02-01 07:13:00
1:21 AM,19.9,18.0,92,29.88,0.8,NE,10.4,-,0.03,Snow,Light Snow,40,2014-02-01 07:21:00
1:49 AM,19.4,17.6,93,29.91,1.0,NNW,4.6,-,0.05,Snow,Light Snow,330,2014-02-01 07:49:00
1:52 AM,19.9,18.0,92,29.95,1.0,North,3.5,-,0.05,Snow,Light Snow,360,2014-02-01 07:52:00
2:01 AM,19.9,18.0,92,29.91,2.5,North,4.6,-,0.00,Snow,Light Snow,360,2014-02-01 08:01:00
2:09 AM,21.0,18.0,88,29.90,4.0,North,4.6,-,0.00,Snow,Light Snow,10,2014-02-01 08:09:00
2:52 AM,21.0,18.0,88,29.91,10.0,NNE,8.1,-,0.00,,Overcast,30,2014-02-01 08:52:00
3:52 AM,21.0,17.1,85,29.93,10.0,North,6.9,-,N/A,,Overcast,10,2014-02-01 09:52:00
4:24 AM,21.0,17.1,85,29.89,10.0,NNE,6.9,-,N/A,,Overcast,20,2014-02-01 10:24:00
4:52 AM,21.0,17.1,85,29.94,10.0,NE,5.8,-,N/A,,Overcast,40,2014-02-01 10:52:00
5:52 AM,21.0,17.1,85,29.95,10.0,North,4.6,-,N/A,,Overcast,10,2014-02-01 11:52:00
6:52 AM,21.0,17.1,85,29.97,10.0,North,5.8,-,N/A,,Overcast,360,2014-02-01 12:52:00
7:52 AM,21.9,18.0,85,30.01,10.0,North,3.5,-,N/A,,Overcast,360,2014-02-01 13:52:00
8:07 AM,21.9,18.0,85,29.97,10.0,North,4.6,-,N/A,,Overcast,360,2014-02-01 14:07:00
8:24 AM,21.9,18.0,85,29.97,10.0,North,4.6,-,N/A,,Overcast,360,2014-02-01 14:24:00
8:34 AM,21.9,18.0,85,29.98,10.0,North,4.6,-,N/A,,Overcast,360,2014-02-01 14:34:00
8:52 AM,21.9,18.0,85,30.03,10.0,North,4.6,-,N/A,,Overcast,10,2014-02-01 14:52:00
9:52 AM,24.1,19.0,81,30.04,10.0,NNE,4.6,-,N/A,,Overcast,20,2014-02-01 15:52:00
10:52 AM,25.0,19.0,78,30.07,10.0,North,4.6,-,N/A,,Overcast,10,2014-02-01 16:52:00
11:52 AM,26.1,19.9,78,30.09,10.0,NNE,6.9,-,N/A,,Overcast,20,2014-02-01 17:52:00
12:52 PM,27.0,19.9,75,30.05,10.0,North,9.2,-,N/A,,Clear,10,2014-02-01 18:52:00
1:44 PM,28.0,19.9,72,30.01,10.0,NNE,9.2,-,N/A,,Mostly Cloudy,20,2014-02-01 19:44:00
1:52 PM,28.0,19.9,72,30.05,10.0,NNE,6.9,-,N/A,,Mostly Cloudy,20,2014-02-01 19:52:00
2:52 PM,28.9,21.0,72,30.08,9.0,North,8.1,-,N/A,,Overcast,360,2014-02-01 20:52:00
3:21 PM,28.0,21.0,75,30.04,8.0,NNE,8.1,-,N/A,,Overcast,20,2014-02-01 21:21:00
3:52 PM,28.0,21.0,75,30.10,9.0,NNE,9.2,-,N/A,,Overcast,20,2014-02-01 21:52:00
4:08 PM,28.9,21.9,75,30.06,8.0,North,5.8,-,N/A,,Overcast,10,2014-02-01 22:08:00
4:23 PM,28.0,21.0,75,30.07,9.0,North,9.2,17.3,N/A,,Overcast,360,2014-02-01 22:23:00
4:36 PM,28.0,19.9,72,30.08,10.0,NNE,10.4,-,N/A,,Overcast,20,2014-02-01 22:36:00
4:52 PM,27.0,19.0,72,30.13,10.0,NNE,9.2,-,N/A,,Overcast,20,2014-02-01 22:52:00
5:52 PM,26.1,17.1,69,30.19,10.0,North,4.6,-,N/A,,Overcast,350,2014-02-01 23:52:00
6:44 PM,25.0,15.1,66,30.17,10.0,NNE,6.9,-,N/A,,Overcast,20,2014-02-02 00:44:00
6:52 PM,25.0,15.1,66,30.22,10.0,NNE,6.9,-,N/A,,Overcast,20,2014-02-02 00:52:00
7:52 PM,23.0,14.0,68,30.26,10.0,North,5.8,-,N/A,,Mostly Cloudy,360,2014-02-02 01:52:00
8:52 PM,23.0,12.9,65,30.29,10.0,NNE,8.1,-,N/A,,Mostly Cloudy,20,2014-02-02 02:52:00
9:52 PM,21.9,12.0,66,30.32,10.0,North,6.9,-,N/A,,Overcast,10,2014-02-02 03:52:00
10:52 PM,21.0,10.9,65,30.32,10.0,NNE,10.4,-,N/A,,Overcast,20,2014-02-02 04:52:00
11:52 PM,19.0,8.1,62,30.33,10.0,North,6.9,-,N/A,,Partly Cloudy,10,2014-02-02 05:52:00